Location: Grange Rosano
(44.4500°N, 6.9667°E)
Time: 21:18:35
(UTC+00:00)

SL-14 R/B - Pass Details

Date: 26 May 2022
Orbit: 517 x 551 km, 82.4° (Epoch: 01 July)

Event Time Altitude Azimuth Distance (km) Brightness Sun altitude
Exits shadow 01:03:28 30° 282° (WNW) 972 4.4 -21.0°
Maximum altitude 01:03:35 30° 285° (WNW) 971 4.4 -21.0°
Drops below altitude 10° 01:07:02 10° 348° (NNW) 1,771 6.6 -20.7°
Sets 01:09:22 0° 359° (N) 2,660 7.9 -20.6°
